N5PLO-10 Weather Reports


time (UTC)temp
F
wind
direction
speed
knots
gust
knots
rain 1hr
in
rain 24hr
in
rain mn
in
humidity
%
barometer
mb
20260510020243 78 205 0.0 0.9 0.00 0.00 0.00 83 1016.1
20260510015739 78 286 0.0 0.0 0.00 0.00 0.00 83 1016.2
20260510015235 78 286 0.0 0.0 0.00 0.00 0.00 82 1016.1
20260510014730 78 270 0.0 0.0 0.00 0.00 0.00 81 1015.8
20260510014228 78 271 0.0 0.0 0.00 0.00 0.00 80 1015.7
20260510013724 79 271 0.0 0.0 0.00 0.00 0.00 79 1015.7
20260510013219 79 271 0.0 0.9 0.00 0.00 0.00 78 1015.6
20260510012719 80 249 0.0 0.0 0.00 0.00 0.00 77 1015.7
20260510012215 80 250 0.0 0.9 0.00 0.00 0.00 77 1015.7
20260510011709 81 263 0.0 0.0 0.00 0.00 0.00 76 1015.6
20260510011205 82 230 0.0 0.9 0.00 0.00 0.00 73 1015.7
20260510010702 84 235 2.6 2.6 0.00 0.00 0.00 69 1015.7
20260510010158 84 269 0.0 0.9 0.00 0.00 0.00 64 1015.4
20260510005655 85 235 0.0 0.0 0.00 0.00 0.00 65 1015.4
20260510005152 85 267 0.0 2.6 0.00 0.00 0.00 66 1015.4
20260510004650 85 170 0.0 0.0 0.00 0.00 0.00 68 1014.8
20260510004148 85 194 0.0 0.0 0.00 0.00 0.00 71 1015.2
20260510003645 85 194 0.0 0.9 0.00 0.00 0.00 74 1015.0
20260510003140 86 194 0.0 0.0 0.00 0.00 0.00 73 1014.7
20260510002640 86 9 0.0 0.9 0.00 0.00 0.00 72 1014.7
20260510002138 86 210 0.0 0.9 0.00 0.00 0.00 71 1014.9
20260510001634 86 212 0.0 0.0 0.00 0.00 0.00 71 1014.7
20260510001133 87 216 0.0 0.0 0.00 0.00 0.00 71 1014.8
20260510000633 87 216 0.0 0.9 0.00 0.00 0.00 71 1014.8
20260510000131 87 200 0.0 0.9 0.00 0.00 0.00 71 1014.9
20260509235627 87 196 0.0 0.9 0.00 0.00 0.00 69 1014.5
20260509235124 87 197 0.0 0.9 0.00 0.00 0.00 70 1014.6
20260509234620 87 197 0.9 0.9 0.00 0.00 0.00 70 1014.6
20260509234118 87 198 0.0 0.0 0.00 0.00 0.00 69 1014.6
20260509233615 87 198 0.0 0.0 0.00 0.00 0.00 69 1014.6
20260509233112 87 198 0.0 0.0 0.00 0.00 0.00 69 1014.7
20260509232608 87 197 0.0 0.9 0.00 0.00 0.00 68 1014.6
20260509232106 87 198 0.0 0.0 0.00 0.00 0.00 68 1014.7
20260509231602 87 199 0.9 0.9 0.00 0.00 0.00 67 1014.8
20260509231100 88 167 0.0 0.9 0.00 0.00 0.00 68 1014.8
20260509230556 88 217 0.0 0.0 0.00 0.00 0.00 67 1014.6
20260509230054 88 217 0.0 0.0 0.00 0.00 0.00 66 1014.3
20260509225549 88 217 0.0 0.0 0.00 0.00 0.00 65 1014.2
20260509225044 89 217 0.0 0.0 0.00 0.00 0.00 65 1014.4
20260509224540 90 217 0.0 0.0 0.00 0.00 0.00 63 1014.4
20260509224037 91 217 0.0 0.0 0.00 0.00 0.00 65 1014.5
20260509223534 90 217 0.0 0.0 0.00 0.00 0.00 66 1014.5
20260509223032 89 217 0.0 0.9 0.00 0.00 0.00 65 1014.4
20260509222528 91 215 0.0 0.0 0.00 0.00 0.00 66 1014.2
20260509222024 92 232 0.9 0.9 0.00 0.00 0.00 62 1014.1
20260509221520 93 245 0.0 0.9 0.00 0.00 0.00 63 1014.2
20260509221016 92 245 0.0 0.9 0.00 0.00 0.00 62 1014.2
20260509220512 92 245 0.0 0.0 0.00 0.00 0.00 61 1014.2
20260509220009 91 245 0.0 0.9 0.00 0.00 0.00 65 1014.0
20260509215504 89 245 0.0 0.0 0.00 0.00 0.00 69 1013.9
20260509215001 90 245 0.0 0.0 0.00 0.00 0.00 67 1014.0
20260509214458 90 245 0.0 0.0 0.00 0.00 0.00 66 1013.9
20260509213955 92 245 0.0 0.0 0.00 0.00 0.00 62 1014.1
20260509213451 91 245 0.0 0.9 0.00 0.00 0.00 66 1013.9
20260509212948 89 244 0.0 0.0 0.00 0.00 0.00 67 1013.8
20260509212445 90 244 0.0 0.9 0.00 0.00 0.00 68 1013.9
20260509211942 89 244 0.0 0.0 0.00 0.00 0.00 68 1013.8
20260509211437 90 244 0.0 0.9 0.00 0.00 0.00 66 1013.7
20260509210934 90 244 0.0 0.0 0.00 0.00 0.00 67 1013.5
20260509210431 89 244 0.0 0.9 0.00 0.00 0.00 68 1013.6
20260509205927 88 244 0.0 0.0 0.00 0.00 0.00 68 1013.7
20260509205421 87 244 0.0 0.0 0.00 0.00 0.00 69 1013.7
20260509204917 87 264 0.0 0.0 0.00 0.00 0.00 71 1013.7
20260509204414 88 264 0.0 0.9 0.00 0.00 0.00 69 1013.7
20260509203911 88 339 0.0 0.0 0.00 0.00 0.00 70 1013.6
20260509203407 88 341 0.0 0.9 0.00 0.00 0.00 69 1013.6
20260509202904 89 338 0.9 1.7 0.00 0.00 0.00 68 1013.6
20260509202400 89 332 0.0 1.7 0.00 0.00 0.00 68 1013.4
20260509201855 91 260 2.6 2.6 0.00 0.00 0.00 65 1013.5
20260509201350 92 305 0.0 0.0 0.00 0.00 0.00 63 1013.5
20260509200848 91 288 0.9 1.7 0.00 0.00 0.00 64 1013.6
20260509200342 93 314 0.0 1.7 0.00 0.00 0.00 66 1013.6
20260509195840 91 298 0.0 0.9 0.00 0.00 0.00 65 1013.6
20260509195340 90 204 0.0 0.9 0.00 0.00 0.00 67 1013.8
20260509194839 91 260 0.9 1.7 0.00 0.00 0.00 67 1014.2
20260509194336 91 225 0.0 0.0 0.00 0.00 0.00 66
20260509193832 89 293 0.0 0.9 0.00 0.00 0.00 67
20260509193327 89 252 0.0 0.0 0.00 0.00 0.00 69
20260509192823 90 254 0.0 0.0 0.00 0.00 0.00 67
20260509192319 91 255 0.0 0.9 0.00 0.00 0.00 65
20260509191815 92 113 0.9 1.7 0.00 0.00 0.00 64
20260509191311 92 232 0.0 0.9 0.00 0.00 0.00 63
20260509190806 92 317 0.0 0.9 0.00 0.00 0.00 66
20260509190304 92 253 0.9 1.7 0.00 0.00 0.00 64
20260509185801 91 286 0.0 0.9 0.00 0.00 0.00 65
20260509185257 90 330 0.0 0.9 0.00 0.00 0.00 69
20260509184755 89 224 0.0 0.0 0.00 0.00 0.00 70
20260509184252 89 261 0.9 0.9 0.00 0.00 0.00 70
20260509183748 90 246 0.0 0.9 0.00 0.00 0.00 69
20260509183244 89 276 0.0 0.9 0.00 0.00 0.00 70
20260509182739 89 7 0.0 0.9 0.00 0.00 0.00 72
20260509182237 87 82 0.0 0.9 0.00 0.00 0.00 74
20260509181734 87 339 0.0 0.0 0.00 0.00 0.00 73
20260509181232 88 344 0.9 0.9 0.00 0.00 0.00 73
20260509180729 86 268 0.0 0.9 0.00 0.00 0.00 75
20260509180225 86 253 0.0 0.0 0.00 0.00 0.00 76
20260509175721 85 241 0.9 1.7 0.00 0.00 0.00 78
20260509175218 86 250 0.0 0.0 0.00 0.00 0.00 76
20260509174714 86 209 0.9 2.6 0.00 0.00 0.00 77
20260509174209 87 178 0.0 0.9 0.00 0.00 0.00 76
20260509173706 87 276 0.0 0.9 0.00 0.00 0.00 76
20260509173201 87 324 0.9 0.9 0.00 0.00 0.00 77
20260509172658 86 249 0.0 0.9 0.00 0.00 0.00 78
20260509172154 86 56 2.6 6.1 0.00 0.00 0.00 79
20260509171649 87 236 0.9 0.9 0.00 0.00 0.00 77
20260509171146 87 236 0.0 1.7 0.00 0.00 0.00 77
20260509170643 87 259 0.9 0.9 0.00 0.00 0.00 76
20260509170139 85 240 0.0 1.7 0.00 0.00 0.00 80
20260509165637 84 230 0.0 0.9 0.00 0.00 0.00 82
20260509165133 83 233 0.0 0.9 0.00 0.00 0.00 83
20260509164629 82 273 0.0 0.9 0.00 0.00 0.00 84
20260509164125 82 358 0.9 1.7 0.00 0.00 0.00 84
20260509163623 82 237 0.0 0.9 0.00 0.00 0.00 83
20260509163118 82 236 0.0 0.9 0.00 0.00 0.00 84
20260509162616 82 247 0.0 0.0 0.00 0.00 0.00 84
20260509162112 82 249 0.0 0.0 0.00 0.00 0.00 85
20260509161608 82 266 0.0 0.0 0.00 0.00 0.00 85
20260509161109 82 279 0.0 0.9 0.00 0.00 0.00 86
20260509160605 81 264 0.0 0.9 0.00 0.00 0.00 86
20260509160100 81 282 0.0 0.0 0.00 0.00 0.00 87
20260509155557 81 313 0.0 0.0 0.00 0.00 0.00 88
20260509155053 80 268 0.0 0.9 0.00 0.00 0.00 89
20260509154549 80 1 0.0 0.9 0.00 0.00 0.00 90
20260509154047 78 0 0.0 0.0 0.00 0.00 0.00 91
20260509153543 79 357 0.0 0.9 0.00 0.00 0.00 91
20260509153040 79 334 0.0 0.0 0.00 0.00 0.00 91
20260509152536 79 315 0.0 0.0 0.00 0.00 0.00 92
20260509152034 79 349 0.0 0.9 0.00 0.00 0.00 93
20260509151529 78 45 0.0 0.0 0.00 0.00 0.00 94
20260509151028 78 46 0.0 0.9 0.00 0.00 0.00 94
20260509150525 78 25 0.0 1.7 0.00 0.00 0.00 94
20260509150023 78 323 0.0 0.0 0.00 0.00 0.00 94
20260509145518 78 282 0.0 0.0 0.00 0.00 0.00 95
20260509145013 77 20 0.0 0.0 0.00 0.00 0.00 95
20260509144511 77 355 0.0 0.0 0.00 0.00 0.00 96
20260509144008 77 355 0.0 0.9 0.00 0.00 0.00 97
20260509143505 77 322 0.0 0.0 0.00 0.00 0.00 97
20260509143003 76 322 0.0 0.0 0.00 0.00 0.00 98
20260509142458 76 325 0.0 0.0 0.00 0.00 0.00 98
20260509141954 76 325 0.0 0.0 0.00 0.00 0.00 99
20260509141450 76 326 0.0 0.0 0.00 0.00 0.00 99
20260509140948 76 320 0.0 0.0 0.00 0.00 0.00 99
20260509140443 76 320 0.0 0.0 0.00 0.00 0.00 99
20260509135942 75 321 0.0 0.0 0.00 0.00 0.00 99
20260509135439 75 321 0.0 0.0 0.00 0.00 0.00 99
20260509134936 75 322 0.0 0.0 0.00 0.00 0.00 99
20260509134434 75 309 0.0 0.0 0.00 0.00 0.00 99
20260509133931 75 310 0.0 0.0 0.00 0.00 0.00 99
20260509133427 75 309 0.0 0.0 0.00 0.00 0.00 99
20260509132926 75 311 0.0 0.0 0.00 0.00 0.00 99
20260509132424 75 311 0.0 0.0 0.00 0.00 0.00 99
20260509131920 75 329 0.0 0.9 0.00 0.00 0.00 99
20260509131418 74 327 0.0 0.0 0.00 0.00 0.00 99
20260509130914 74 260 0.0 0.0 0.00 0.00 0.00 99
20260509130409 74 303 0.0 0.0 0.00 0.00 0.00 99
20260509125907 74 303 0.0 0.0 0.00 0.00 0.00 99
20260509125403 73 303 0.0 0.0 0.00 0.00 0.00 99
20260509124859 73 303 0.0 0.0 0.00 0.00 0.00 99
20260509124356 73 304 0.0 0.0 0.00 0.00 0.00 99
20260509123854 73 304 0.0 0.0 0.00 0.00 0.00 99
20260509123351 73 304 0.0 0.0 0.00 0.00 0.00 99
20260509122847 73 304 0.0 0.0 0.00 0.00 0.00 99
20260509122344 73 304 0.0 0.0 0.00 0.00 0.00 99
20260509121841 73 303 0.0 0.0 0.00 0.00 0.00 99
20260509121338 73 303 0.0 0.0 0.00 0.00 0.00 99
20260509120836 73 303 0.0 0.0 0.00 0.00 0.00 99
20260509120333 72 303 0.0 0.0 0.00 0.00 0.00 99
20260509115831 72 303 0.0 0.0 0.00 0.00 0.00 99
20260509115328 72 303 0.0 0.0 0.00 0.00 0.00 99
20260509114826 72 303 0.0 0.0 0.00 0.00 0.00 99 1014.5
20260509114325 72 303 0.0 0.0 0.00 0.00 0.00 99 1014.5
20260509113824 73 303 0.0 0.0 0.00 0.00 0.00 99 1014.5
20260509113320 73 303 0.0 0.0 0.00 0.00 0.00 99 1014.5
20260509112817 73 304 0.0 0.0 0.00 0.00 0.00 99 1014.5
20260509112314 73 304 0.0 0.0 0.00 0.00 0.00 99 1014.5
20260509111811 73 304 0.0 0.0 0.00 0.00 0.00 99 1014.5
20260509111308 73 304 0.0 0.0 0.00 0.00 0.00 99 1014.5
20260509110805 73 304 0.0 0.0 0.00 0.00 0.00 99 1014.5
20260509110302 73 304 0.0 0.0 0.00 0.00 0.00 99 1014.5
20260509105800 73 304 0.0 0.0 0.00 0.00 0.00 99 1014.5
20260509105258 73 304 0.0 0.0 0.00 0.00 0.00 99 1014.6
20260509104754 73 304 0.0 0.0 0.00 0.00 0.00 99 1014.5
20260509104251 72 304 0.0 0.0 0.00 0.00 0.00 99 1014.4
20260509103749 72 303 0.0 0.0 0.00 0.00 0.00 99 1014.5
20260509103246 72 303 0.0 0.0 0.00 0.00 0.00 99 1014.5
20260509102744 72 303 0.0 0.0 0.00 0.00 0.00 99 1014.4
20260509102241 72 303 0.0 0.0 0.00 0.00 0.00 99 1014.0
20260509101737 72 303 0.0 0.0 0.00 0.00 0.00 99 1013.7
20260509101233 72 303 0.0 0.0 0.00 0.00 0.00 99 1013.7
20260509100731 72 303 0.0 0.0 0.00 0.00 0.00 99 1013.7
20260509100228 73 303 0.0 0.0 0.00 0.00 0.00 99 1013.5
20260509095725 73 303 0.0 0.0 0.00 0.00 0.00 99 1013.4
20260509095222 73 303 0.0 0.0 0.00 0.00 0.00 99 1013.2
20260509094719 73 303 0.0 0.0 0.00 0.00 0.00 99 1013.4
20260509094216 73 303 0.0 0.0 0.00 0.00 0.00 99 1013.6
20260509093714 73 303 0.0 0.0 0.00 0.00 0.00 99 1013.7
20260509093211 73 303 0.0 0.0 0.00 0.00 0.00 99 1013.7
20260509092709 73 303 0.0 0.0 0.00 0.00 0.00 99 1014.2
20260509092207 73 303 0.0 0.0 0.00 0.00 0.00 99 1014.4
20260509091705 73 303 0.0 0.0 0.00 0.00 0.00 99 1014.2
20260509091200 73 303 0.0 0.0 0.00 0.00 0.00 99 1014.2
20260509090658 73 303 0.0 0.0 0.00 0.00 0.00 99 1014.1
20260509090155 73 303 0.0 0.0 0.00 0.00 0.00 99 1014.2
20260509085653 73 303 0.0 0.0 0.00 0.00 0.00 99 1014.3
20260509085149 73 303 0.0 0.0 0.00 0.00 0.00 99 1014.4
20260509084646 73 303 0.0 0.0 0.00 0.00 0.00 99 1014.0
20260509084138 73 303 0.0 0.0 0.00 0.00 0.00 99 1014.2
20260509083635 73 303 0.0 0.0 0.00 0.00 0.00 99 1014.1
20260509083131 73 303 0.0 0.0 0.00 0.00 0.00 99 1014.1
20260509082629 73 303 0.0 0.0 0.00 0.00 0.00 99 1014.2
20260509082125 73 303 0.0 0.0 0.00 0.00 0.00 99 1014.0
20260509081622 73 304 0.0 0.0 0.00 0.00 0.00 99 1014.1
20260509081120 73 306 0.0 0.0 0.00 0.00 0.00 99 1013.8
20260509080618 73 285 0.0 0.0 0.00 0.00 0.00 99 1013.9
20260509080115 73 285 0.0 0.0 0.00 0.00 0.00 99 1013.8
20260509075613 73 285 0.0 0.0 0.00 0.00 0.00 99 1014.1
20260509075111 73 285 0.0 0.0 0.00 0.00 0.00 99 1014.1
20260509074607 73 254 0.0 0.9 0.00 0.00 0.00 99 1014.0
20260509074103 73 254 0.0 0.0 0.00 0.00 0.00 99 1014.1
20260509073601 73 253 0.0 0.0 0.00 0.00 0.00 99 1013.9
20260509073057 73 259 0.0 0.9 0.00 0.00 0.00 99 1014.3
20260509072553 73 245 0.0 0.9 0.00 0.00 0.00 99 1014.2
20260509072050 73 230 0.0 0.9 0.00 0.00 0.00 99 1014.3
20260509071547 73 261 0.0 0.0 0.00 0.00 0.00 99 1014.3
20260509071044 73 262 0.0 0.0 0.00 0.00 0.00 99 1014.3
20260509070541 73 262 0.0 0.0 0.00 0.00 0.00 99 1014.3
20260509070032 73 262 0.0 0.0 0.00 0.00 0.00 99 1014.4
20260509065527 73 262 0.0 0.0 0.00 0.00 0.00 99 1014.3
20260509065024 73 262 0.0 0.0 0.00 0.00 0.00 99 1014.5
20260509064521 73 262 0.0 0.0 0.00 0.00 0.00 99 1014.4
20260509064020 73 262 0.0 0.0 0.00 0.00 0.00 99 1014.3
20260509063514 73 262 0.0 0.0 0.00 0.00 0.00 99 1014.3
20260509063012 73 261 0.0 0.0 0.00 0.00 0.00 99 1014.5
20260509062509 73 262 0.0 0.0 0.00 0.00 0.00 99 1014.6
20260509062007 73 262 0.0 0.0 0.00 0.00 0.00 99 1014.7
20260509061504 73 263 0.0 0.0 0.00 0.00 0.00 99 1014.7
20260509061001 73 261 0.0 0.0 0.00 0.00 0.00 99 1014.8
20260509060458 73 261 0.0 0.0 0.00 0.00 0.00 99 1014.8
20260509055954 73 260 0.0 0.0 0.00 0.00 0.00 99 1014.9
20260509055449 73 235 0.0 0.0 0.00 0.00 0.00 99 1014.7
20260509054946 73 144 0.0 0.0 0.00 0.00 0.00 99 1014.6
20260509054442 73 101 0.0 0.9 0.00 0.00 0.00 99 1014.7
20260509053941 73 318 0.0 0.0 0.00 0.00 0.00 99 1014.9
20260509053438 73 317 0.0 0.0 0.00 0.00 0.00 99 1015.0
20260509052936 73 318 0.0 0.0 0.00 0.00 0.00 99 1014.9
20260509052433 73 345 0.0 0.9 0.00 0.00 0.00 99 1014.9
20260509051931 73 277 0.0 0.0 0.00 0.00 0.00 99 1014.8
20260509051428 73 247 0.0 0.0 0.00 0.00 0.00 99 1014.9
20260509050925 73 289 0.0 0.0 0.00 0.00 0.00 99 1014.9
20260509050422 73 291 0.0 0.0 0.00 0.00 0.00 99 1015.0
20260509045919 73 243 0.0 0.0 0.00 0.00 0.00 99 1015.0
20260509045416 73 279 0.0 0.0 0.00 0.00 0.00 99 1015.0
20260509044913 73 214 0.9 0.9 0.00 0.00 0.00 99 1015.1
20260509044410 72 112 0.0 0.0 0.00 0.00 0.00 99 1015.1
20260509043907 72 289 0.0 0.0 0.00 0.00 0.00 99 1015.1
20260509043403 72 333 0.9 1.7 0.00 0.00 0.00 99 1015.2
20260509042859 72 229 0.0 0.0 0.00 0.00 0.00 99 1015.0
20260509042356 72 249 0.0 0.0 0.00 0.00 0.00 99 1014.8
20260509041852 72 249 0.0 0.0 0.00 0.00 0.00 99 1015.0
20260509041349 72 339 0.9 1.7 0.00 0.00 0.00 99 1015.0
20260509040847 72 337 0.0 0.9 0.00 0.00 0.00 99 1015.0
20260509040345 72 341 0.0 0.0 0.00 0.00 0.00 99 1014.9
20260509035842 72 346 0.0 0.0 0.00 0.00 0.00 99 1014.9
20260509035339 72 318 0.0 0.9 0.00 0.00 0.00 99 1014.9
20260509034834 72 224 0.0 0.9 0.00 0.00 0.00 99 1014.8
20260509034333 72 230 0.0 0.0 0.00 0.00 0.00 99 1014.6
20260509033829 72 226 0.0 0.9 0.00 0.00 0.00 99 1014.7
20260509033327 72 338 0.0 1.7 0.00 0.00 0.00 99 1014.9
20260509032823 72 321 0.9 1.7 0.00 0.00 0.00 99 1014.9
20260509032320 72 203 0.0 0.9 0.00 0.00 0.00 99 1014.8
20260509031819 72 231 0.0 0.0 0.00 0.00 0.00 99 1014.9
20260509031315 72 223 0.0 0.9 0.00 0.00 0.00 99 1014.7
20260509030813 72 287 0.0 0.0 0.00 0.00 0.00 99 1014.8
20260509030311 72 231 0.9 0.9 0.00 0.00 0.00 99 1014.8
20260509025807 72 205 0.0 0.9 0.00 0.00 0.00 99 1014.6
20260509025306 72 316 0.9 1.7 0.00 0.00 0.00 99 1014.6
20260509024758 72 218 0.9 1.7 0.00 0.00 0.00 99 1014.7
20260509024255 72 317 0.0 0.0 0.00 0.00 0.00 99 1014.6
20260509023752 72 253 0.0 0.0 0.00 0.00 0.00 99 1014.6
20260509023249 72 251 0.0 0.0 0.00 0.00 0.00 99 1014.6
20260509022745 72 238 0.0 1.7 0.00 0.00 0.00 99 1014.5
20260509022243 72 228 0.0 1.7 0.00 0.00 0.00 99 1014.6
20260509021739 72 294 0.0 0.9 0.00 0.00 0.00 99 1014.1
20260509021237 72 341 0.0 0.9 0.00 0.00 0.00 99 1014.2
20260509020735 72 325 0.0 0.0 0.00 0.00 0.00 99 1014.4